Location: Bennemühlen
(52.5740°N, 9.7135°E)
Time: 00:53:29
(UTC+00:00)

Spot 1 - Pass Details

Date: 19 May 2025
Orbit: 568 x 753 km, 98.7° (Epoch: 21 June)

Event Time Altitude Azimuth Distance (km) Brightness Sun altitude
Rises 23:17:42 0° 13° (NNE) 2,851 9.0 -17.4°
Reaches altitude 10° 23:19:50 10° 11° (NNE) 1,966 7.9 -17.4°
Maximum altitude 23:24:04 68° 289° (WNW) 679 4.2 -17.4°
Enters shadow 23:26:12 30° 214° (SW) 1,161 5.0 -17.4°
